When you browse on this site, cookies collect data to enhance your experience and personalize the content and advertising you see.
Visit our Privacy Policy to learn more. By continuing to use the site, you agree to this use of cookies and data.
  • In Austria
  • List of Countries
  • For 7 days
  • Water Temperature
  • Satellite Maps
  • Weather Map
  • News
  • Weather Widgets
  • user-avatar
    Login

    Hourly Weather San Juan

    Today, 16 January, Wednesday

    Time Temperature Precipitation Wind Pressure Humidity
    00:00 +27°C° 0 mm 1 mps 704 mmHg 25%
    01:00 +27°C° 0 mm 2 mps 704 mmHg 29%
    02:00 +27°C° 0 mm 3 mps 704 mmHg 30%
    03:00 +26°C° 0 mm 3 mps 704 mmHg 30%
    04:00 +26°C° 0 mm 3 mps 703 mmHg 30%
    05:00 +27°C° 0 mm 4 mps 704 mmHg 31%
    06:00 +29°C° 0 mm 4 mps 704 mmHg 32%
    07:00 +30°C° 0 mm 3 mps 704 mmHg 34%
    08:00 +33°C° 0 mm 4 mps 704 mmHg 31%
    09:00 +34°C° 0 mm 4 mps 703 mmHg 27%
    10:00 +36°C° 0 mm 4 mps 703 mmHg 24%
    11:00 +37°C° 0 mm 4 mps 703 mmHg 22%
    12:00 +37°C° 0 mm 4 mps 702 mmHg 19%
    13:00 +38°C° 0 mm 4 mps 702 mmHg 17%
    14:00 +40°C° 0 mm 4 mps 702 mmHg 16%
    15:00 +40°C° 0 mm 4 mps 702 mmHg 16%
    16:00 +41°C° 0 mm 4 mps 702 mmHg 15%
    17:00 +39°C° 0 mm 5 mps 702 mmHg 18%
    18:00 +37°C° 0 mm 5 mps 702 mmHg 20%
    19:00 +36°C° 0 mm 5 mps 703 mmHg 22%
    20:00 +34°C° 0.2 mm 8 mps 704 mmHg 28%
    21:00 +32°C° 0.2 mm 11 mps 705 mmHg 33%
    22:00 +29°C° 0.2 mm 14 mps 706 mmHg 39%
    23:00 +28°C° 0 mm 14 mps 707 mmHg 39%

    Tomorrow, 17 January, Thursday

    Time Temperature Precipitation Wind Pressure Humidity
    00:00 +26°C° 0 mm 14 mps 708 mmHg 39%
    01:00 +24°C° 0 mm 13 mps 708 mmHg 39%
    02:00 +23°C° 0 mm 13 mps 708 mmHg 40%
    03:00 +22°C° 0 mm 12 mps 709 mmHg 41%
    04:00 +22°C° 0 mm 11 mps 709 mmHg 41%
    05:00 +21°C° 0 mm 10 mps 709 mmHg 43%
    06:00 +21°C° 0 mm 10 mps 710 mmHg 44%
    07:00 +21°C° 0 mm 9 mps 710 mmHg 45%
    08:00 +22°C° 0 mm 10 mps 710 mmHg 45%
    09:00 +22°C° 0 mm 10 mps 710 mmHg 45%
    10:00 +22°C° 0 mm 11 mps 711 mmHg 45%
    11:00 +22°C° 0 mm 11 mps 710 mmHg 46%
    12:00 +22°C° 0 mm 11 mps 710 mmHg 47%
    13:00 +22°C° 0 mm 11 mps 710 mmHg 48%
    14:00 +22°C° 0 mm 10 mps 709 mmHg 48%
    15:00 +22°C° 0 mm 10 mps 709 mmHg 48%
    16:00 +21°C° 0 mm 9 mps 709 mmHg 48%
    17:00 +21°C° 0 mm 8 mps 709 mmHg 49%
    18:00 +20°C° 0 mm 7 mps 710 mmHg 51%
    19:00 +19°C° 0 mm 5 mps 710 mmHg 53%
    20:00 +19°C° 0 mm 5 mps 711 mmHg 53%
    21:00 +19°C° 0 mm 4 mps 711 mmHg 54%
    22:00 +18°C° 0 mm 3 mps 712 mmHg 55%
    23:00 +18°C° 0 mm 2 mps 711 mmHg 56%

    Day after tomorrow, 18 January, Friday

    Time Temperature Precipitation Wind Pressure Humidity
    00:00 +17°C° 0 mm 2 mps 711 mmHg 58%
    01:00 +18°C° 0 mm 1 mps 710 mmHg 60%
    02:00 +16°C° 0 mm 1 mps 710 mmHg 62%
    03:00 +16°C° 0 mm 1 mps 710 mmHg 64%
    04:00 +15°C° 0 mm 0 mps 709 mmHg 66%
    05:00 +18°C° 0 mm 1 mps 710 mmHg 62%
    06:00 +19°C° 0 mm 1 mps 710 mmHg 57%
    07:00 +19°C° 0 mm 2 mps 710 mmHg 52%
    08:00 +20°C° 0 mm 2 mps 710 mmHg 47%
    09:00 +23°C° 0 mm 2 mps 710 mmHg 41%
    10:00 +24°C° 0 mm 2 mps 709 mmHg 36%
    11:00 +26°C° 0 mm 2 mps 709 mmHg 33%
    12:00 +27°C° 0 mm 2 mps 708 mmHg 30%
    13:00 +29°C° 0 mm 2 mps 707 mmHg 27%
    14:00 +29°C° 0 mm 2 mps 707 mmHg 26%
    15:00 +30°C° 0 mm 2 mps 706 mmHg 25%
    16:00 +30°C° 0 mm 2 mps 706 mmHg 24%
    17:00 +29°C° 0 mm 2 mps 706 mmHg 25%
    18:00 +28°C° 0 mm 3 mps 707 mmHg 27%
    19:00 +27°C° 0 mm 3 mps 707 mmHg 28%
    20:00 +26°C° 0 mm 2 mps 707 mmHg 30%
    21:00 +26°C° 0 mm 2 mps 708 mmHg 31%
    22:00 +25°C° 0 mm 1 mps 708 mmHg 33%
    23:00 +24°C° 0 mm 1 mps 708 mmHg 34%

    19 January, Saturday

    Time Temperature Precipitation Wind Pressure Humidity
    00:00 +24°C° 0 mm 1 mps 707 mmHg 34%
    01:00 +23°C° 0 mm 2 mps 707 mmHg 35%
    02:00 +23°C° 0 mm 2 mps 707 mmHg 39%
    03:00 +23°C° 0 mm 2 mps 706 mmHg 43%
    04:00 +21°C° 0 mm 2 mps 706 mmHg 46%
    05:00 +24°C° 0 mm 2 mps 707 mmHg 48%
    06:00 +25°C° 0 mm 3 mps 707 mmHg 49%
    07:00 +26°C° 0 mm 3 mps 707 mmHg 50%
    08:00 +27°C° 0 mm 3 mps 707 mmHg 46%
    09:00 +28°C° 0 mm 3 mps 707 mmHg 41%
    10:00 +30°C° 0 mm 3 mps 707 mmHg 37%
    11:00 +31°C° 0 mm 3 mps 706 mmHg 33%
    12:00 +34°C° 0 mm 3 mps 705 mmHg 29%
    13:00 +35°C° 0 mm 2 mps 705 mmHg 24%
    14:00 +35°C° 0 mm 3 mps 705 mmHg 23%
    15:00 +36°C° 0 mm 3 mps 704 mmHg 22%
    16:00 +36°C° 0 mm 3 mps 704 mmHg 21%
    17:00 +35°C° 0 mm 3 mps 704 mmHg 23%
    18:00 +34°C° 0 mm 2 mps 705 mmHg 25%
    19:00 +32°C° 0 mm 2 mps 705 mmHg 27%
    20:00 +31°C° 0 mm 2 mps 706 mmHg 29%
    21:00 +30°C° 0 mm 2 mps 706 mmHg 31%
    22:00 +29°C° 0 mm 2 mps 707 mmHg 32%
    23:00 +29°C° 0 mm 3 mps 706 mmHg 36%

    20 January, Sunday

    Time Temperature Precipitation Wind Pressure Humidity
    00:00 +28°C° 0 mm 4 mps 706 mmHg 40%
    01:00 +27°C° 0 mm 4 mps 705 mmHg 43%
    02:00 +26°C° 0 mm 4 mps 705 mmHg 48%
    03:00 +26°C° 0 mm 4 mps 705 mmHg 53%
    04:00 +25°C° 0 mm 4 mps 705 mmHg 57%
    05:00 +27°C° 0 mm 4 mps 705 mmHg 54%
    06:00 +28°C° 0 mm 4 mps 706 mmHg 50%
    07:00 +29°C° 0 mm 4 mps 706 mmHg 46%
    08:00 +30°C° 0 mm 4 mps 706 mmHg 41%
    09:00 +33°C° 0 mm 3 mps 705 mmHg 35%
    10:00 +34°C° 0 mm 3 mps 705 mmHg 30%
    11:00 +36°C° 0 mm 3 mps 704 mmHg 26%
    12:00 +37°C° 0 mm 3 mps 703 mmHg 23%
    13:00 +38°C° 0 mm 3 mps 703 mmHg 20%
    14:00 +39°C° 0 mm 3 mps 702 mmHg 19%
    15:00 +39°C° 0 mm 3 mps 701 mmHg 18%
    16:00 +39°C° 0 mm 2 mps 701 mmHg 16%
    17:00 +38°C° 0 mm 2 mps 701 mmHg 18%
    18:00 +37°C° 0 mm 2 mps 702 mmHg 20%
    19:00 +35°C° 0 mm 2 mps 702 mmHg 21%
    20:00 +34°C° 0 mm 3 mps 702 mmHg 25%
    21:00 +34°C° 0 mm 4 mps 703 mmHg 28%
    22:00 +33°C° 0 mm 5 mps 703 mmHg 32%
    23:00 +32°C° 0 mm 4 mps 703 mmHg 37%

    21 January, Monday

    Time Temperature Precipitation Wind Pressure Humidity
    00:00 +30°C° 0 mm 4 mps 702 mmHg 42%
    01:00 +29°C° 0 mm 4 mps 702 mmHg 47%
    02:00 +29°C° 0 mm 3 mps 702 mmHg 51%
    03:00 +28°C° 0 mm 3 mps 702 mmHg 54%
    04:00 +28°C° 0 mm 2 mps 702 mmHg 58%
    05:00 +29°C° 0 mm 2 mps 703 mmHg 53%
    06:00 +30°C° 0 mm 2 mps 704 mmHg 49%
    07:00 +31°C° 0 mm 1 mps 705 mmHg 45%
    08:00 +33°C° 0 mm 4 mps 705 mmHg 41%
    09:00 +35°C° 0 mm 6 mps 705 mmHg 38%
    10:00 +37°C° 0 mm 8 mps 705 mmHg 35%
    11:00 +38°C° 0 mm 7 mps 705 mmHg 34%
    12:00 +38°C° 0 mm 7 mps 704 mmHg 32%
    13:00 +39°C° 0 mm 7 mps 704 mmHg 31%
    14:00 +39°C° 0 mm 6 mps 703 mmHg 30%
    15:00 +39°C° 0 mm 6 mps 703 mmHg 29%
    16:00 +39°C° 0 mm 5 mps 703 mmHg 27%
    17:00 +37°C° 0 mm 4 mps 703 mmHg 29%
    18:00 +36°C° 0 mm 3 mps 703 mmHg 31%
    19:00 +35°C° 0 mm 2 mps 704 mmHg 32%
    20:00 +34°C° 0 mm 2 mps 704 mmHg 34%
    21:00 +34°C° 0 mm 2 mps 704 mmHg 36%
    22:00 +32°C° 0 mm 1 mps 705 mmHg 38%
    23:00 +31°C° 0 mm 2 mps 704 mmHg 39%
    Show more